P/2001 Q2 (Petriew) 

T 2001 Sept. 1.96176 TT                                 Nakano

q   0.9447841            (2000.0)            P               Q

n   0.18346387     Peri.  181.95518     +0.81014245     -0.57060297

a   3.0673902      Node   213.98966     +0.54106992     +0.81607885

e   0.6919909      Incl.   13.91789     +0.22563808     +0.09180177

P   5.37

From 201 observations 2001 Aug. 19-27.

Residuals in seconds of arc 

2001/                     010821 762  0.9-  0.8+    010823 402  1.3+  0.2+  

010819 921  1.6+  0.7+    010821 762  0.9-  1.7-    010824 046  1.1+  0.1+  

010819 921 (2.3+  0.9-)   010821 762 (2.6-  0.9-)   010824 046  0.8+  0.3+  

010819 921  1.2+  1.3+    010821 762  1.5-  0.3-    010824 046  1.2+  0.2+  

010819 921  1.0+  0.1+    010821 762  0.5+  0.1+    010824 046  1.3+  0.3+  

010820 557  0.0   0.3+    010821 762  0.5-  0.5-    010824 046  1.2+  0.6+  

010820 557  0.2-  0.3+    010821 762 (3.5-  0.8+)   010824 046  1.4+  0.3+  

010820 349  0.0   0.1-    010821 762  0.2-  0.1+    010824 170  0.4+  0.4-  

010820 349  0.4+  0.1+    010821 762  0.1-  0.6+    010824 046  1.2+  0.1+  

010820 349  0.4-  0.4+    010821 762  0.8+  0.2-    010824 170  0.6+  0.1-  

010820 349  0.3+  0.1-    010821 372  0.1+  0.6+    010824 170  0.5+  0.3-  

010821 151  0.8+  1.2+    010821 300  0.2+  0.2-    010824 850  0.8+  0.0   

010821 107  0.3-  0.0     010821 300  0.2-  0.1+    010824 850  0.2+  0.3-  

010821 107  0.9+  0.2+    010821 300  0.1+  0.3+    010824 850  0.4+  0.5-  

010821 151  0.5+  0.7+    010821 300  0.4+  0.1-    010824 886  1.1-  0.1+  

010821 620  0.1-  0.5-    010821 300  0.5+  0.1-    010824 886  0.4-  0.2+  

010821 151  0.5-  1.2+    010821 372  0.3-  0.2+    010824 886 (2.5-  0.0 ) 

010821 151  0.2+  0.2+    010821 372  0.9+  0.2-    010825 636  0.6+  0.6+  

010821 620  0.0   0.4-    010822 611 (3.0-  2.2-)   010825 636  1.0+  0.9+  

010821 620  0.2-  0.4-    010822 611 (2.3-  1.3-)   010825 636  1.3+  1.4+  

010821 170  0.7-  0.2-    010822 952  0.8-  0.0     010825 213  1.1-  0.2-  

010821 595  0.4-  0.5+    010822 952  1.0-  0.6+    010825 046  1.0+  0.7+  

010821 170  0.3+  0.2-    010822 952  0.0   1.1+    010825 046  1.0+  0.6+  

010821 595  0.7-  0.1+    010822 952  0.3-  0.7+    010825 046  1.0+  0.7+  

010821 620  0.3-  0.4-    010822 952  0.1+  0.0     010825 213  1.0-  0.2+  

010821 170  0.9-  0.0     010822 213  1.0+  0.3+    010825 046  1.0+  0.6+  

010821 595  0.2-  0.3+    010822 952  0.1-  0.7+    010825 170  0.5-  0.3+  

010821 595  0.1-  0.3-    010822 213  0.1+  0.3-    010825 213  0.1+  0.0   

010821 620  0.1-  0.4-    010822 213  1.0-  0.4-    010825 213  1.4-  0.3+  

010821 170  0.3-  0.1-    010822 213  0.2-  0.0     010825 170  0.2-  0.4+  

010821 170  1.3-  0.0     010822 952  0.1+  0.2+    010825 213  0.5-  0.2+  

010821 170  0.0   0.2-    010822 213  0.5-  0.6-    010825 213  0.8+  0.1+  

010821 213  0.3-  0.3-    010822 941  1.7+  0.8-    010825 170  0.1+  0.3+  

010821 213  0.3-  0.0     010822 213  0.2+  0.1-    010825 157 (2.3-  0.6+) 

010821 213  0.4-  0.5-    010822 213  0.7-  0.2+    010825 157 (0.1-  2.2+) 

010821 213  1.3-  0.1-    010822 941  1.5+  0.7-    010825 213  0.5-  0.1+  

010821 213  0.5-  0.1+    010822 213  0.3-  0.3-    010825 213  0.6-  0.4+  

010821 213  0.3-  0.3+    010822 941 (2.3+  0.7-)   010825 213  0.5-  0.3-  

010821 213  0.5-  0.0     010822 213  0.2-  0.6-    010825 213  0.2-  0.1+  

010821 170  0.5+  0.3-    010822 213  1.0-  0.1+    010825 213  1.7-  0.2+  

010821 627  1.1-  0.2-    010822 213  0.8-  0.2-    010825 213  0.4-  0.1+  

010821 627  1.0-  0.3-    010822 213  0.0   0.7-    010825 170  0.5-  0.0   

010821 470  0.2+  1.0+    010822 213  0.1+  0.0     010826 204  0.6+  0.5+  

010821 470  0.8-  0.5+    010822 213  0.3+  0.5-    010826 213  0.6-  0.3-  

010821 627  1.0-  0.3-    010822 586  0.5+  0.5+    010826 204  0.5+  0.2+  

010821 470  1.2-  0.9+    010822 586  0.5+  0.5+    010826 213  1.0-  0.0   

010821 627  0.9-  0.2-    010822 586  0.6+  0.5+    010826 204 (2.2+  2.1+) 

010821 627  0.8-  0.3-    010822 586  0.4+  0.5+    010826 213  0.5-  0.3-  

010821 946  0.6-  0.4-    010822 586  0.6+  0.5+    010826 213  0.9+  0.1+  

010821 946  0.6-  0.3-    010822 586  0.6+  0.5+    010826 952  0.4+  0.4+  

010821 946  0.6-  0.3-    010822 342  0.5-  0.6-    010826 952  1.1+  0.4+  

010821 586  0.8+  0.2-    010822 342  0.2-  0.5-    010826 213  1.7-  0.1+  

010821 946  0.7-  0.4-    010822 349  0.7-  0.0     010826 213  1.2-  1.1-  

010821 946  0.6-  0.5-    010822 349  1.0-  0.2-    010826 213  0.3-  0.1+  

010821 586  0.7+  0.1-    010822 342  0.1-  0.2-    010826 213  1.0-  0.3+  

010821 170 (2.1+  0.5-)   010822 349  0.4-  0.1+    010826 232  1.0-  0.9+  

010821 586  0.4+  0.1+    010822 349  0.6-  0.0     010826 232  0.8+  0.3-  

010821 586  0.6+  0.1-    010823 170  0.9-  0.7-    010826 213  0.4-  0.3+  

010821 232  0.4-  1.2+    010823 170 (5.8+  0.0 )   010826 213  0.3+  0.1+  

010821 586  0.9+  0.3-    010823 170  1.2-  0.6-    010826 232  0.8+  0.2+  

010821 170  0.6+  0.6-    010823 170  0.3+  1.2-    010826 232  1.1+  0.2+  

010821 232 (3.1+  0.8+)   010823 232  0.6+  0.3-    010826 213  1.6-  0.0   

010821 170  1.5+  0.5-    010823 458  0.2-  1.4-    010826 213  0.2-  0.0   

010821 586  0.9+  0.3-    010823 458  0.5-  0.9-    010826 213  0.2+  0.8-  

010821 586  0.7+  0.1-    010823 232  0.8-  0.6-    010826 213  1.2-  0.5+  

010821 586  0.8+  0.3-    010823 232  1.2-  0.2-    010827 300  0.3-  0.5-  

010821 586  0.7+  0.3-    010823 232  0.5+  0.5-    010827 300  0.2+  0.2-  

010821 586  0.6+  0.3-    010823 232  1.1+  0.4-    010827 300  0.1+  0.6-  

010821 232  0.3-  0.1-    010823 458 (2.4-  1.7-)   010827 300  0.5+  0.8-  

010821 232  1.7+  0.0     010823 921  0.2-  1.3-    010827 300  0.1+  0.9-  

010821 458 (1.4-  2.1-)   010823 921  0.8-  0.6+    010827 300  0.2-  0.4-  

010821 458  0.6-  0.5-    010823 402  1.4+  0.1+    

010821 762  0.3+  0.3+    010823 402  1.3+  0.2+    



NAKANO

         **** Don't distribute anyone except personal use only ****

                (C) Copyright 2001 OAA/ComputingSection

write mail from CFAD0::NAKANO on 2001-08-29 00:52:52(JST).

 

◎C/2001 Q2の軌道と予報位置です



 台風11号が去ったあと,美星で22日早朝に,ほぼ,曇天の状況で観測に

成功しました.なお,前々回のEMESで記したとおり,この彗星の軌道は,

下のように103P/Hartley 2の軌道と良く似ています.

  位置予報は, 2nd Orbit(楕円軌道)からのものです.もう少し,長半

径が大きいことを期待したいものです.



Comet        T/TT           q       e       Peri.   Node     Inc.      L     B

2001Q2 (ORG) 2001 08 31.06  1.0062  1.0000  179.48  220.59   15.46    40.2   0.1

2001Q2 (ORG) 2001 09 02.54  0.9420  0.6686  182.78  213.67   13.95    36.4  -0.7

0103         1997 12 22.02  1.0317  0.7004  180.72  219.95   13.62    40.7  -0.2

0103         2004 05 17.98  1.0363  0.6995  180.81  219.90   13.60    40.7  -0.2



    C/2001 Q2 (Petriew) 

T 2001 Aug. 31.06161 TT                                 Nakano

q   1.0061708            (2000.0)            P               Q

                   Peri.  179.48427     +0.76499559     -0.62024640

                   Node   220.59028     +0.58993260     +0.78288031

e   1.0            Incl.   15.45864     +0.25838203     +0.04891648

From 28 observations 2001 Aug. 19-2001 Aug. 21.



    C/2001 Q2 (Petriew) 

T 2001 Sept. 2.54428 TT                                 Nakano

q   0.9420191            (2000.0)            P               Q

n   0.20567738     Peri.  182.78000     +0.80512763     -0.57784774

a   2.8423553      Node   213.67394     +0.54870461     +0.81124328

e   0.6685780      Incl.   13.94776     +0.22515053     +0.08931029

P   4.79

From 28 observations 2001 Aug. 19-21.



 18h TT  R.A.(2000) Decl.    Delta   r      Mot./PA   Elong. Mag.  At twilight

           h  m       。  ,                    ,     。    。    m1     h      A 

Aug. 20  05 45.35  +27 20.8  0.859  0.960   77.9/105   61.1  10.0  +39.3  261.7

     21  05 50.97  +26 59.6  0.863  0.957   77.3/106   60.8  10.0  +39.1  262.0

     22  05 56.51  +26 37.8  0.868  0.955   76.7/107   60.5  10.0  +38.8  262.4

     23  06 01.98  +26 15.5  0.872  0.953   76.1/107   60.2  10.0  +38.5  262.7

     24  06 07.36  +25 52.6  0.876  0.951   75.5/108   60.0  10.0  +38.3  263.1

     25  06 12.68  +25 29.1  0.881  0.949   74.9/108   59.7  10.0  +38.1  263.5

     26  06 17.91  +25 05.3  0.886  0.947   74.3/109   59.5  10.0  +37.8  263.9

     27  06 23.08  +24 40.9  0.891  0.946   73.7/109   59.3  10.0  +37.6  264.4

     28  06 28.16  +24 16.2  0.896  0.945   73.1/110   59.1  10.0  +37.4  264.8

     29  06 33.17  +23 51.2  0.901  0.944   72.4/110   58.9  10.0  +37.2  265.3

     30  06 38.11  +23 25.8  0.906  0.943   71.8/111   58.7  10.0  +37.0  265.8

     31  06 42.97  +23 00.2  0.912  0.942   71.1/111   58.5  10.0  +36.8  266.2

Sept. 1  06 47.76  +22 34.3  0.917  0.942   70.5/112   58.3  10.1  +36.7  266.7

      2  06 52.47  +22 08.1  0.923  0.942   69.8/112   58.2  10.1  +36.5  267.2

      3  06 57.12  +21 41.8  0.928  0.942   69.1/112   58.0  10.1  +36.3  267.8

      4  07 01.70  +21 15.3  0.934  0.943   68.5/113   57.9  10.1  +36.2  268.3

      5  07 06.20  +20 48.7  0.940  0.943   67.8/113   57.8  10.1  +36.1  268.8

      6  07 10.64  +20 21.9  0.946  0.944   67.2/113   57.7  10.1  +35.9  269.4

      7  07 15.01  +19 55.1  0.952  0.945   66.5/114   57.6  10.1  +35.8  269.9

      8  07 19.32  +19 28.1  0.958  0.946   65.8/114   57.5  10.2  +35.7  270.5

      9  07 23.55  +19 01.2  0.964  0.948   65.2/114   57.4  10.2  +35.6  271.1

     10  07 27.73  +18 34.2  0.971  0.949   64.5/115   57.4  10.2  +35.5  271.6

     11  07 31.84  +18 07.1  0.977  0.951   63.8/115   57.3  10.2  +35.4  272.2

     12  07 35.89  +17 40.1  0.983  0.954   63.2/115   57.3  10.3  +35.4  272.8

     13  07 39.88  +17 13.1  0.989  0.956   62.5/115   57.2  10.3  +35.3  273.4

     14  07 43.82  +16 46.2  0.996  0.958   61.8/116   57.2  10.3  +35.3  274.0

